datetime,flow
1935-10-01,126.0
1935-10-02,114.0
1935-10-03,105.0
1935-10-04,96.0
1935-10-05,92.0
1935-10-06,89.0
1935-10-07,82.0
1935-10-08,78.0
1935-10-09,74.0
1935-10-10,73.0
1935-10-11,71.0
1935-10-12,70.0
1935-10-13,68.0
1935-10-14,66.0
1935-10-15,65.0
1935-10-16,64.0
1935-10-17,62.0
1935-10-18,59.0
1935-10-19,56.0
1935-10-20,91.0
1935-10-21,98.0
1935-10-22,89.0
1935-10-23,79.0
1935-10-24,76.0
1935-10-25,79.0
1935-10-26,78.0
1935-10-27,76.0
1935-10-28,79.0
1935-10-29,81.0
1935-10-30,81.0
1935-10-31,68.0
1935-11-01,60.0
1935-11-02,68.0
1935-11-03,68.0
1935-11-04,70.0
1935-11-05,72.0
1935-11-06,73.0
1935-11-07,62.0
1935-11-08,62.0
1935-11-09,58.0
1935-11-10,60.0
1935-11-11,58.0
1935-11-12,60.0
1935-11-13,59.0
1935-11-14,60.0
1935-11-15,46.0
1935-11-16,50.0
1935-11-17,53.0
1935-11-18,66.0
1935-11-19,50.0
1935-11-20,49.0
1935-11-21,53.0
1935-11-22,53.0
1935-11-23,68.0
1935-11-24,59.0
1935-11-25,65.0
1935-11-26,64.0
1935-11-27,43.0
1935-11-28,35.0
1935-11-29,48.0
1935-11-30,48.0
1935-12-01,50.0
1935-12-02,48.0
1935-12-03,50.0
1935-12-04,50.0
1935-12-05,59.0
1935-12-06,58.0
1935-12-07,52.0
1935-12-08,46.0
1935-12-09,44.0
1935-12-10,39.0
1935-12-11,41.0
1935-12-12,46.0
1935-12-13,60.0
1935-12-14,43.0
1935-12-15,25.0
1935-12-16,26.0
1935-12-17,30.0
1935-12-18,35.0
1935-12-19,36.0
1935-12-20,44.0
1935-12-21,40.0
1935-12-22,38.0
1935-12-23,39.0
1935-12-24,40.0
1935-12-25,41.0
1935-12-26,41.0
1935-12-27,43.0
1935-12-28,46.0
1935-12-29,44.0
1935-12-30,45.0
1935-12-31,48.0
1936-01-01,43.0
1936-01-02,34.0
1936-01-03,46.0
1936-01-04,41.0
1936-01-05,46.0
1936-01-06,46.0
1936-01-07,45.0
1936-01-08,48.0
1936-01-09,45.0
1936-01-10,46.0
1936-01-11,43.0
1936-01-12,45.0
1936-01-13,36.0
1936-01-14,40.0
1936-01-15,45.0
1936-01-16,46.0
1936-01-17,35.0
1936-01-18,35.0
1936-01-19,35.0
1936-01-20,35.0
1936-01-21,36.0
1936-01-22,40.0
1936-01-23,40.0
1936-01-24,40.0
1936-01-25,40.0
1936-01-26,40.0
1936-01-27,40.0
1936-01-28,43.0
1936-01-29,44.0
1936-01-30,33.0
1936-01-31,33.0
1936-02-01,43.0
1936-02-02,40.0
1936-02-03,27.0
1936-02-04,28.0
1936-02-05,43.0
1936-02-06,50.0
1936-02-07,52.0
1936-02-08,49.0
1936-02-09,43.0
1936-02-10,43.0
1936-02-11,40.0
1936-02-12,43.0
1936-02-13,43.0
1936-02-14,44.0
1936-02-15,43.0
1936-02-16,43.0
1936-02-17,40.0
1936-02-18,43.0
1936-02-19,44.0
1936-02-20,44.0
1936-02-21,40.0
1936-02-22,41.0
1936-02-23,46.0
1936-02-24,38.0
1936-02-25,33.0
1936-02-26,40.0
1936-02-27,46.0
1936-02-28,50.0
1936-02-29,53.0
1936-03-01,54.0
1936-03-02,62.0
1936-03-03,71.0
1936-03-04,89.0
1936-03-05,114.0
1936-03-06,118.0
1936-03-07,120.0
1936-03-08,130.0
1936-03-09,158.0
1936-03-10,194.0
1936-03-11,189.0
1936-03-12,191.0
1936-03-13,209.0
1936-03-14,243.0
1936-03-15,237.0
1936-03-16,220.0
1936-03-17,223.0
1936-03-18,220.0
1936-03-19,212.0
1936-03-20,215.0
1936-03-21,218.0
1936-03-22,202.0
1936-03-23,162.0
1936-03-24,138.0
1936-03-25,118.0
1936-03-26,110.0
1936-03-27,101.0
1936-03-28,114.0
1936-03-29,132.0
1936-03-30,191.0
1936-03-31,144.0
1936-04-01,118.0
1936-04-02,132.0
1936-04-03,142.0
1936-04-04,112.0
1936-04-05,105.0
1936-04-06,99.0
1936-04-07,162.0
1936-04-08,317.0
1936-04-09,357.0
1936-04-10,421.0
1936-04-11,602.0
1936-04-12,840.0
1936-04-13,968.0
1936-04-14,1030.0
1936-04-15,976.0
1936-04-16,1050.0
1936-04-17,1150.0
1936-04-18,1090.0
1936-04-19,1010.0
1936-04-20,1160.0
1936-04-21,1220.0
1936-04-22,1340.0
1936-04-23,1360.0
1936-04-24,1210.0
1936-04-25,1180.0
1936-04-26,1180.0
1936-04-27,1200.0
1936-04-28,1170.0
1936-04-29,1140.0
1936-04-30,992.0
1936-05-01,1080.0
1936-05-02,1280.0
1936-05-03,1470.0
1936-05-04,1640.0
1936-05-05,2000.0
1936-05-06,2000.0
1936-05-07,1360.0
1936-05-08,1190.0
1936-05-09,840.0
1936-05-10,763.0
1936-05-11,742.0
1936-05-12,840.0
1936-05-13,1000.0
1936-05-14,1080.0
1936-05-15,1130.0
1936-05-16,1300.0
1936-05-17,1430.0
1936-05-18,1380.0
1936-05-19,1460.0
1936-05-20,1470.0
1936-05-21,1490.0
1936-05-22,1440.0
1936-05-23,1450.0
1936-05-24,1460.0
1936-05-25,1470.0
1936-05-26,1410.0
1936-05-27,1380.0
1936-05-28,1400.0
1936-05-29,1430.0
1936-05-30,1450.0
1936-05-31,1450.0
1936-06-01,1340.0
1936-06-02,1140.0
1936-06-03,920.0
1936-06-04,805.0
1936-06-05,763.0
1936-06-06,805.0
1936-06-07,848.0
1936-06-08,872.0
1936-06-09,856.0
1936-06-10,833.0
1936-06-11,777.0
1936-06-12,756.0
1936-06-13,688.0
1936-06-14,646.0
1936-06-15,607.0
1936-06-16,563.0
1936-06-17,500.0
1936-06-18,440.0
1936-06-19,416.0
1936-06-20,390.0
1936-06-21,373.0
1936-06-22,369.0
1936-06-23,325.0
1936-06-24,317.0
1936-06-25,291.0
1936-06-26,280.0
1936-06-27,243.0
1936-06-28,243.0
1936-06-29,243.0
1936-06-30,220.0
1936-07-01,191.0
1936-07-02,162.0
1936-07-03,149.0
1936-07-04,140.0
1936-07-05,128.0
1936-07-06,116.0
1936-07-07,109.0
1936-07-08,107.0
1936-07-09,162.0
1936-07-10,160.0
1936-07-11,474.0
1936-07-12,373.0
1936-07-13,243.0
1936-07-14,179.0
1936-07-15,164.0
1936-07-16,176.0
1936-07-17,164.0
1936-07-18,149.0
1936-07-19,138.0
1936-07-20,132.0
1936-07-21,114.0
1936-07-22,120.0
1936-07-23,101.0
1936-07-24,94.0
1936-07-25,92.0
1936-07-26,91.0
1936-07-27,101.0
1936-07-28,109.0
1936-07-29,101.0
1936-07-30,114.0
1936-07-31,109.0
1936-08-01,101.0
1936-08-02,118.0
1936-08-03,162.0
1936-08-04,164.0
1936-08-05,580.0
1936-08-06,856.0
1936-08-07,700.0
1936-08-08,607.0
1936-08-09,460.0
1936-08-10,369.0
1936-08-11,313.0
1936-08-12,280.0
1936-08-13,223.0
1936-08-14,189.0
1936-08-15,174.0
1936-08-16,155.0
1936-08-17,144.0
1936-08-18,162.0
1936-08-19,207.0
1936-08-20,294.0
1936-08-21,294.0
1936-08-22,223.0
1936-08-23,172.0
1936-08-24,147.0
1936-08-25,134.0
1936-08-26,120.0
1936-08-27,114.0
1936-08-28,126.0
1936-08-29,246.0
1936-08-30,817.0
1936-08-31,640.0
1936-09-01,510.0
1936-09-02,430.0
1936-09-03,605.0
1936-09-04,563.0
1936-09-05,430.0
1936-09-06,357.0
1936-09-07,298.0
1936-09-08,267.0
1936-09-09,246.0
1936-09-10,218.0
1936-09-11,390.0
1936-09-12,305.0
1936-09-13,255.0
1936-09-14,234.0
1936-09-15,191.0
1936-09-16,172.0
1936-09-17,160.0
1936-09-18,158.0
1936-09-19,155.0
1936-09-20,147.0
1936-09-21,132.0
1936-09-22,229.0
1936-09-23,167.0
1936-09-24,136.0
1936-09-25,126.0
1936-09-26,122.0
1936-09-27,136.0
1936-09-28,153.0
1936-09-29,144.0
1936-09-30,158.0
1936-10-01,150.0
1936-10-02,141.0
1936-10-03,132.0
1936-10-04,132.0
1936-10-05,126.0
1936-10-06,137.0
1936-10-07,130.0
1936-10-08,130.0
1936-10-09,119.0
1936-10-10,112.0
1936-10-11,106.0
1936-10-12,101.0
1936-10-13,96.0
1936-10-14,93.0
1936-10-15,90.0
1936-10-16,88.0
1936-10-17,86.0
1936-10-18,88.0
1936-10-19,86.0
1936-10-20,156.0
1936-10-21,132.0
1936-10-22,126.0
1936-10-23,126.0
1936-10-24,119.0
1936-10-25,125.0
1936-10-26,121.0
1936-10-27,116.0
1936-10-28,109.0
1936-10-29,109.0
1936-10-30,186.0
1936-10-31,194.0
1936-11-01,205.0
1936-11-02,168.0
1936-11-03,123.0
1936-11-04,126.0
1936-11-05,148.0
1936-11-06,154.0
1936-11-07,148.0
1936-11-08,143.0
1936-11-09,135.0
1936-11-10,139.0
1936-11-11,139.0
1936-11-12,141.0
1936-11-13,141.0
1936-11-14,148.0
1936-11-15,162.0
1936-11-16,168.0
1936-11-17,164.0
1936-11-18,156.0
1936-11-19,146.0
1936-11-20,139.0
1936-11-21,137.0
1936-11-22,128.0
1936-11-23,121.0
1936-11-24,110.0
1936-11-25,112.0
1936-11-26,109.0
1936-11-27,104.0
1936-11-28,102.0
1936-11-29,106.0
1936-11-30,96.0
1936-12-01,104.0
1936-12-02,88.0
1936-12-03,82.0
1936-12-04,92.0
1936-12-05,93.0
1936-12-06,56.0
1936-12-07,62.0
1936-12-08,71.0
1936-12-09,73.0
1936-12-10,63.0
1936-12-11,65.0
1936-12-12,68.0
1936-12-13,67.0
1936-12-14,73.0
1936-12-15,78.0
1936-12-16,84.0
1936-12-17,82.0
1936-12-18,70.0
1936-12-19,68.0
1936-12-20,74.0
1936-12-21,78.0
1936-12-22,68.0
1936-12-23,70.0
1936-12-24,74.0
1936-12-25,75.0
1936-12-26,75.0
1936-12-27,68.0
1936-12-28,81.0
1936-12-29,78.0
1936-12-30,71.0
1936-12-31,68.0
1937-01-01,68.0
1937-01-02,60.0
1937-01-03,65.0
1937-01-04,63.0
1937-01-05,65.0
1937-01-06,63.0
1937-01-07,62.0
1937-01-08,67.0
1937-01-09,67.0
1937-01-10,59.0
1937-01-11,62.0
1937-01-12,65.0
1937-01-13,68.0
1937-01-14,68.0
1937-01-15,66.0
1937-01-16,61.0
1937-01-17,67.0
1937-01-18,63.0
1937-01-19,66.0
1937-01-20,63.0
1937-01-21,66.0
1937-01-22,68.0
1937-01-23,71.0
1937-01-24,71.0
1937-01-25,70.0
1937-01-26,67.0
1937-01-27,66.0
1937-01-28,66.0
1937-01-29,65.0
1937-01-30,68.0
1937-01-31,63.0
1937-02-01,60.0
1937-02-02,60.0
1937-02-03,61.0
1937-02-04,59.0
1937-02-05,60.0
1937-02-06,59.0
1937-02-07,55.0
1937-02-08,47.0
1937-02-09,61.0
1937-02-10,56.0
1937-02-11,60.0
1937-02-12,61.0
1937-02-13,61.0
1937-02-14,60.0
1937-02-15,57.0
1937-02-16,57.0
1937-02-17,57.0
1937-02-18,55.0
1937-02-19,55.0
1937-02-20,57.0
1937-02-21,50.0
1937-02-22,51.0
1937-02-23,55.0
1937-02-24,56.0
1937-02-25,57.0
1937-02-26,61.0
1937-02-27,62.0
1937-02-28,61.0
1937-03-01,59.0
1937-03-02,60.0
1937-03-03,67.0
1937-03-04,70.0
1937-03-05,67.0
1937-03-06,73.0
1937-03-07,73.0
1937-03-08,82.0
1937-03-09,93.0
1937-03-10,98.0
1937-03-11,126.0
1937-03-12,148.0
1937-03-13,134.0
1937-03-14,130.0
1937-03-15,123.0
1937-03-16,114.0
1937-03-17,125.0
1937-03-18,134.0
1937-03-19,109.0
1937-03-20,101.0
1937-03-21,116.0
1937-03-22,144.0
1937-03-23,160.0
1937-03-24,130.0
1937-03-25,125.0
1937-03-26,119.0
1937-03-27,123.0
1937-03-28,125.0
1937-03-29,117.0
1937-03-30,112.0
1937-03-31,135.0
1937-04-01,199.0
1937-04-02,290.0
1937-04-03,293.0
1937-04-04,254.0
1937-04-05,276.0
1937-04-06,305.0
1937-04-07,279.0
1937-04-08,362.0
1937-04-09,465.0
1937-04-10,643.0
1937-04-11,1050.0
1937-04-12,1210.0
1937-04-13,1390.0
1937-04-14,1550.0
1937-04-15,1940.0
1937-04-16,2120.0
1937-04-17,1850.0
1937-04-18,1550.0
1937-04-19,1580.0
1937-04-20,1590.0
1937-04-21,1830.0
1937-04-22,1940.0
1937-04-23,1590.0
1937-04-24,1260.0
1937-04-25,1290.0
1937-04-26,1580.0
1937-04-27,1710.0
1937-04-28,1410.0
1937-04-29,1080.0
1937-04-30,904.0
1937-05-01,964.0
1937-05-02,1300.0
1937-05-03,1580.0
1937-05-04,1800.0
1937-05-05,1910.0
1937-05-06,1720.0
1937-05-07,1820.0
1937-05-08,1860.0
1937-05-09,2180.0
1937-05-10,2160.0
1937-05-11,2280.0
1937-05-12,2310.0
1937-05-13,2580.0
1937-05-14,2830.0
1937-05-15,2930.0
1937-05-16,2880.0
1937-05-17,2950.0
1937-05-18,2850.0
1937-05-19,2590.0
1937-05-20,2470.0
1937-05-21,2370.0
1937-05-22,2290.0
1937-05-23,2290.0
1937-05-24,2100.0
1937-05-25,1880.0
1937-05-26,1650.0
1937-05-27,1590.0
1937-05-28,1660.0
1937-05-29,1730.0
1937-05-30,1760.0
1937-05-31,1720.0
1937-06-01,1640.0
1937-06-02,1710.0
1937-06-03,1680.0
1937-06-04,1600.0
1937-06-05,1520.0
1937-06-06,1300.0
1937-06-07,1260.0
1937-06-08,1370.0
1937-06-09,1430.0
1937-06-10,1360.0
1937-06-11,1460.0
1937-06-12,1530.0
1937-06-13,1610.0
1937-06-14,1560.0
1937-06-15,1340.0
1937-06-16,1400.0
1937-06-17,1500.0
1937-06-18,1520.0
1937-06-19,1580.0
1937-06-20,1580.0
1937-06-21,1460.0
1937-06-22,1340.0
1937-06-23,1220.0
1937-06-24,1170.0
1937-06-25,1100.0
1937-06-26,1050.0
1937-06-27,1050.0
1937-06-28,860.0
1937-06-29,800.0
1937-06-30,760.0
1937-07-01,780.0
1937-07-02,670.0
1937-07-03,600.0
1937-07-04,520.0
1937-07-05,450.0
1937-07-06,410.0
1937-07-07,380.0
1937-07-08,370.0
1937-07-09,355.0
1937-07-10,334.0
1937-07-11,596.0
1937-07-12,402.0
1937-07-13,346.0
1937-07-14,337.0
1937-07-15,309.0
1937-07-16,291.0
1937-07-17,281.0
1937-07-18,265.0
1937-07-19,242.0
1937-07-20,215.0
1937-07-21,203.0
1937-07-22,188.0
1937-07-23,175.0
1937-07-24,177.0
1937-07-25,173.0
1937-07-26,195.0
1937-07-27,206.0
1937-07-28,197.0
1937-07-29,239.0
1937-07-30,199.0
1937-07-31,177.0
1937-08-01,177.0
1937-08-02,160.0
1937-08-03,156.0
1937-08-04,142.0
1937-08-05,139.0
1937-08-06,160.0
1937-08-07,162.0
1937-08-08,132.0
1937-08-09,108.0
1937-08-10,112.0
1937-08-11,102.0
1937-08-12,94.0
1937-08-13,91.0
1937-08-14,89.0
1937-08-15,91.0
1937-08-16,94.0
1937-08-17,106.0
1937-08-18,100.0
1937-08-19,120.0
1937-08-20,91.0
1937-08-21,85.0
1937-08-22,82.0
1937-08-23,82.0
1937-08-24,72.0
1937-08-25,69.0
1937-08-26,74.0
1937-08-27,93.0
1937-08-28,82.0
1937-08-29,74.0
1937-08-30,79.0
1937-08-31,186.0
1937-09-01,122.0
1937-09-02,100.0
1937-09-03,102.0
1937-09-04,98.0
1937-09-05,87.0
1937-09-06,85.0
1937-09-07,108.0
1937-09-08,91.0
1937-09-09,85.0
1937-09-10,77.0
1937-09-11,71.0
1937-09-12,66.0
1937-09-13,63.0
1937-09-14,62.0
1937-09-15,56.0
1937-09-16,56.0
1937-09-17,54.0
1937-09-18,51.0
1937-09-19,47.0
1937-09-20,46.0
1937-09-21,43.0
1937-09-22,44.0
1937-09-23,48.0
1937-09-24,48.0
1937-09-25,44.0
1937-09-26,41.0
1937-09-27,40.0
1937-09-28,40.0
1937-09-29,46.0
1937-09-30,179.0
1937-10-01,141.0
1937-10-02,100.0
1937-10-03,89.0
1937-10-04,82.0
1937-10-05,74.0
1937-10-06,68.0
1937-10-07,60.0
1937-10-08,57.0
1937-10-09,57.0
1937-10-10,56.0
1937-10-11,54.0
1937-10-12,54.0
1937-10-13,56.0
1937-10-14,54.0
1937-10-15,89.0
1937-10-16,130.0
1937-10-17,96.0
1937-10-18,91.0
1937-10-19,74.0
1937-10-20,64.0
1937-10-21,68.0
1937-10-22,69.0
1937-10-23,72.0
1937-10-24,69.0
1937-10-25,64.0
1937-10-26,63.0
1937-10-27,63.0
1937-10-28,63.0
1937-10-29,62.0
1937-10-30,58.0
1937-10-31,60.0
1937-11-01,58.0
1937-11-02,57.0
1937-11-03,56.0
1937-11-04,56.0
1937-11-05,51.0
1937-11-06,50.0
1937-11-07,69.0
1937-11-08,68.0
1937-11-09,66.0
1937-11-10,68.0
1937-11-11,66.0
1937-11-12,60.0
1937-11-13,53.0
1937-11-14,53.0
1937-11-15,58.0
1937-11-16,48.0
1937-11-17,50.0
1937-11-18,56.0
1937-11-19,44.0
1937-11-20,51.0
1937-11-21,54.0
1937-11-22,50.0
1937-11-23,46.0
1937-11-24,51.0
1937-11-25,46.0
1937-11-26,46.0
1937-11-27,38.0
1937-11-28,30.0
1937-11-29,32.0
1937-11-30,33.0
1937-12-01,33.0
1937-12-02,35.0
1937-12-03,57.0
1937-12-04,46.0
1937-12-05,40.0
1937-12-06,46.0
1937-12-07,38.0
1937-12-08,34.0
1937-12-09,32.0
1937-12-10,36.0
1937-12-11,43.0
1937-12-12,51.0
1937-12-13,53.0
1937-12-14,56.0
1937-12-15,48.0
1937-12-16,47.0
1937-12-17,47.0
1937-12-18,36.0
1937-12-19,22.0
1937-12-20,40.0
1937-12-21,39.0
1937-12-22,35.0
1937-12-23,44.0
1937-12-24,43.0
1937-12-25,43.0
1937-12-26,47.0
1937-12-27,53.0
1937-12-28,43.0
1937-12-29,46.0
1937-12-30,47.0
1937-12-31,49.0
1938-01-01,50.0
1938-01-02,51.0
1938-01-03,51.0
1938-01-04,50.0
1938-01-05,48.0
1938-01-06,42.0
1938-01-07,43.0
1938-01-08,43.0
1938-01-09,45.0
1938-01-10,47.0
1938-01-11,48.0
1938-01-12,48.0
1938-01-13,49.0
1938-01-14,50.0
1938-01-15,52.0
1938-01-16,56.0
1938-01-17,58.0
1938-01-18,57.0
1938-01-19,55.0
1938-01-20,55.0
1938-01-21,50.0
1938-01-22,58.0
1938-01-23,58.0
1938-01-24,53.0
1938-01-25,50.0
1938-01-26,53.0
1938-01-27,57.0
1938-01-28,58.0
1938-01-29,58.0
1938-01-30,58.0
1938-01-31,54.0
1938-02-01,54.0
1938-02-02,54.0
1938-02-03,53.0
1938-02-04,54.0
1938-02-05,51.0
1938-02-06,43.0
1938-02-07,51.0
1938-02-08,53.0
1938-02-09,51.0
1938-02-10,53.0
1938-02-11,54.0
1938-02-12,66.0
1938-02-13,74.0
1938-02-14,63.0
1938-02-15,60.0
1938-02-16,57.0
1938-02-17,43.0
1938-02-18,50.0
1938-02-19,51.0
1938-02-20,62.0
1938-02-21,57.0
1938-02-22,51.0
1938-02-23,51.0
1938-02-24,53.0
1938-02-25,51.0
1938-02-26,48.0
1938-02-27,62.0
1938-02-28,64.0
1938-03-01,77.0
1938-03-02,87.0
1938-03-03,128.0
1938-03-04,164.0
1938-03-05,128.0
1938-03-06,94.0
1938-03-07,85.0
1938-03-08,87.0
1938-03-09,83.0
1938-03-10,89.0
1938-03-11,98.0
1938-03-12,114.0
1938-03-13,122.0
1938-03-14,116.0
1938-03-15,118.0
1938-03-16,116.0
1938-03-17,130.0
1938-03-18,132.0
1938-03-19,149.0
1938-03-20,188.0
1938-03-21,205.0
1938-03-22,179.0
1938-03-23,198.0
1938-03-24,276.0
1938-03-25,351.0
1938-03-26,374.0
1938-03-27,291.0
1938-03-28,250.0
1938-03-29,200.0
1938-03-30,170.0
1938-03-31,168.0
1938-04-01,156.0
1938-04-02,137.0
1938-04-03,175.0
1938-04-04,249.0
1938-04-05,306.0
1938-04-06,306.0
1938-04-07,252.0
1938-04-08,227.0
1938-04-09,270.0
1938-04-10,390.0
1938-04-11,494.0
1938-04-12,642.0
1938-04-13,625.0
1938-04-14,533.0
1938-04-15,432.0
1938-04-16,428.0
1938-04-17,538.0
1938-04-18,840.0
1938-04-19,1140.0
1938-04-20,1150.0
1938-04-21,1370.0
1938-04-22,1460.0
1938-04-23,1730.0
1938-04-24,1850.0
1938-04-25,1820.0
1938-04-26,1590.0
1938-04-27,1380.0
1938-04-28,1500.0
1938-04-29,1720.0
1938-04-30,1750.0
1938-05-01,1590.0
1938-05-02,1210.0
1938-05-03,1040.0
1938-05-04,840.0
1938-05-05,696.0
1938-05-06,648.0
1938-05-07,559.0
1938-05-08,504.0
1938-05-09,490.0
1938-05-10,458.0
1938-05-11,538.0
1938-05-12,724.0
1938-05-13,840.0
1938-05-14,1350.0
1938-05-15,1800.0
1938-05-16,1840.0
1938-05-17,1780.0
1938-05-18,1580.0
1938-05-19,1460.0
1938-05-20,1230.0
1938-05-21,1280.0
1938-05-22,1350.0
1938-05-23,1250.0
1938-05-24,1430.0
1938-05-25,1540.0
1938-05-26,1800.0
1938-05-27,2070.0
1938-05-28,2530.0
1938-05-29,3350.0
1938-05-30,3070.0
1938-05-31,2900.0
1938-06-01,2910.0
1938-06-02,2800.0
1938-06-03,2750.0
1938-06-04,2990.0
1938-06-05,2800.0
1938-06-06,2710.0
1938-06-07,2440.0
1938-06-08,2240.0
1938-06-09,2000.0
1938-06-10,1910.0
1938-06-11,1840.0
1938-06-12,1970.0
1938-06-13,2410.0
1938-06-14,2250.0
1938-06-15,2100.0
1938-06-16,2000.0
1938-06-17,1970.0
1938-06-18,1940.0
1938-06-19,1710.0
1938-06-20,1680.0
1938-06-21,1840.0
1938-06-22,2120.0
1938-06-23,2120.0
1938-06-24,1720.0
1938-06-25,1570.0
1938-06-26,1520.0
1938-06-27,1480.0
1938-06-28,1390.0
1938-06-29,2100.0
1938-06-30,1800.0
1938-07-01,1460.0
1938-07-02,1250.0
1938-07-03,1110.0
1938-07-04,970.0
1938-07-05,864.0
1938-07-06,752.0
1938-07-07,672.0
1938-07-08,586.0
1938-07-09,533.0
1938-07-10,494.0
1938-07-11,454.0
1938-07-12,440.0
1938-07-13,411.0
1938-07-14,428.0
1938-07-15,419.0
1938-07-16,374.0
1938-07-17,335.0
1938-07-18,316.0
1938-07-19,320.0
1938-07-20,309.0
1938-07-21,276.0
1938-07-22,255.0
1938-07-23,244.0
1938-07-24,212.0
1938-07-25,202.0
1938-07-26,191.0
1938-07-27,198.0
1938-07-28,320.0
1938-07-29,235.0
1938-07-30,198.0
1938-07-31,187.0
1938-08-01,178.0
1938-08-02,163.0
1938-08-03,156.0
1938-08-04,163.0
1938-08-05,165.0
1938-08-06,149.0
1938-08-07,165.0
1938-08-08,138.0
1938-08-09,136.0
1938-08-10,124.0
1938-08-11,134.0
1938-08-12,235.0
1938-08-13,276.0
1938-08-14,324.0
1938-08-15,227.0
1938-08-16,180.0
1938-08-17,158.0
1938-08-18,147.0
1938-08-19,130.0
1938-08-20,118.0
1938-08-21,112.0
1938-08-22,103.0
1938-08-23,100.0
1938-08-24,101.0
1938-08-25,103.0
1938-08-26,105.0
1938-08-27,93.0
1938-08-28,93.0
1938-08-29,100.0
1938-08-30,114.0
1938-08-31,103.0
1938-09-01,110.0
1938-09-02,178.0
1938-09-03,167.0
1938-09-04,196.0
1938-09-05,202.0
1938-09-06,196.0
1938-09-07,191.0
1938-09-08,230.0
1938-09-09,193.0
1938-09-10,174.0
1938-09-11,773.0
1938-09-12,1100.0
1938-09-13,856.0
1938-09-14,602.0
1938-09-15,458.0
1938-09-16,402.0
1938-09-17,402.0
1938-09-18,306.0
1938-09-19,267.0
1938-09-20,230.0
1938-09-21,212.0
1938-09-22,193.0
1938-09-23,178.0
1938-09-24,171.0
1938-09-25,165.0
1938-09-26,152.0
1938-09-27,141.0
1938-09-28,134.0
1938-09-29,124.0
1938-09-30,114.0
1938-10-01,121.0
1938-10-02,121.0
1938-10-03,119.0
1938-10-04,115.0
1938-10-05,124.0
1938-10-06,153.0
1938-10-07,270.0
1938-10-08,412.0
1938-10-09,267.0
1938-10-10,229.0
1938-10-11,215.0
1938-10-12,190.0
1938-10-13,195.0
1938-10-14,200.0
1938-10-15,208.0
1938-10-16,240.0
1938-10-17,249.0
1938-10-18,213.0
1938-10-19,197.0
1938-10-20,182.0
1938-10-21,175.0
1938-10-22,168.0
1938-10-23,159.0
1938-10-24,150.0
1938-10-25,144.0
1938-10-26,140.0
1938-10-27,134.0
1938-10-28,130.0
1938-10-29,124.0
1938-10-30,122.0
1938-10-31,119.0
1938-11-01,122.0
1938-11-02,122.0
1938-11-03,112.0
1938-11-04,115.0
1938-11-05,119.0
1938-11-06,104.0
1938-11-07,79.0
1938-11-08,94.0
1938-11-09,106.0
1938-11-10,103.0
1938-11-11,95.0
1938-11-12,97.0
1938-11-13,74.0
1938-11-14,94.0
1938-11-15,103.0
1938-11-16,97.0
1938-11-17,94.0
1938-11-18,80.0
1938-11-19,90.0
1938-11-20,92.0
1938-11-21,87.0
1938-11-22,87.0
1938-11-23,58.0
1938-11-24,54.0
1938-11-25,58.0
1938-11-26,57.0
1938-11-27,63.0
1938-11-28,66.0
1938-11-29,69.0
1938-11-30,77.0
1938-12-01,82.0
1938-12-02,77.0
1938-12-03,64.0
1938-12-04,74.0
1938-12-05,71.0
1938-12-06,71.0
1938-12-07,66.0
1938-12-08,69.0
1938-12-09,63.0
1938-12-10,69.0
1938-12-11,71.0
1938-12-12,69.0
1938-12-13,63.0
1938-12-14,45.0
1938-12-15,61.0
1938-12-16,79.0
1938-12-17,74.0
1938-12-18,54.0
1938-12-19,74.0
1938-12-20,64.0
1938-12-21,68.0
1938-12-22,63.0
1938-12-23,52.0
1938-12-24,41.0
1938-12-25,48.0
1938-12-26,55.0
1938-12-27,48.0
1938-12-28,57.0
1938-12-29,54.0
1938-12-30,54.0
1938-12-31,58.0
1939-01-01,55.0
1939-01-02,60.0
1939-01-03,66.0
1939-01-04,63.0
1939-01-05,53.0
1939-01-06,68.0
1939-01-07,64.0
1939-01-08,64.0
1939-01-09,63.0
1939-01-10,57.0
1939-01-11,49.0
1939-01-12,44.0
1939-01-13,46.0
1939-01-14,46.0
1939-01-15,46.0
1939-01-16,52.0
1939-01-17,52.0
1939-01-18,53.0
1939-01-19,48.0
1939-01-20,48.0
1939-01-21,54.0
1939-01-22,53.0
1939-01-23,49.0
1939-01-24,45.0
1939-01-25,44.0
1939-01-26,46.0
1939-01-27,48.0
1939-01-28,53.0
1939-01-29,48.0
1939-01-30,45.0
1939-01-31,44.0
1939-02-01,33.0
1939-02-02,41.0
1939-02-03,52.0
1939-02-04,49.0
1939-02-05,49.0
1939-02-06,48.0
1939-02-07,46.0
1939-02-08,46.0
1939-02-09,45.0
1939-02-10,41.0
1939-02-11,46.0
1939-02-12,46.0
1939-02-13,48.0
1939-02-14,48.0
1939-02-15,45.0
1939-02-16,48.0
1939-02-17,45.0
1939-02-18,46.0
1939-02-19,48.0
1939-02-20,46.0
1939-02-21,45.0
1939-02-22,44.0
1939-02-23,45.0
1939-02-24,46.0
1939-02-25,49.0
1939-02-26,50.0
1939-02-27,48.0
1939-02-28,46.0
1939-03-01,48.0
1939-03-02,44.0
1939-03-03,49.0
1939-03-04,52.0
1939-03-05,46.0
1939-03-06,46.0
1939-03-07,49.0
1939-03-08,53.0
1939-03-09,52.0
1939-03-10,53.0
1939-03-11,50.0
1939-03-12,53.0
1939-03-13,60.0
1939-03-14,72.0
1939-03-15,95.0
1939-03-16,119.0
1939-03-17,142.0
1939-03-18,187.0
1939-03-19,225.0
1939-03-20,270.0
1939-03-21,320.0
1939-03-22,440.0
1939-03-23,600.0
1939-03-24,540.0
1939-03-25,478.0
1939-03-26,494.0
1939-03-27,494.0
1939-03-28,339.0
1939-03-29,315.0
1939-03-30,289.0
1939-03-31,318.0
1939-04-01,400.0
1939-04-02,465.0
1939-04-03,566.0
1939-04-04,708.0
1939-04-05,550.0
1939-04-06,520.0
1939-04-07,429.0
1939-04-08,483.0
1939-04-09,608.0
1939-04-10,510.0
1939-04-11,396.0
1939-04-12,404.0
1939-04-13,442.0
1939-04-14,465.0
1939-04-15,396.0
1939-04-16,328.0
1939-04-17,295.0
1939-04-18,289.0
1939-04-19,335.0
1939-04-20,404.0
1939-04-21,608.0
1939-04-22,766.0
1939-04-23,822.0
1939-04-24,656.0
1939-04-25,555.0
1939-04-26,510.0
1939-04-27,602.0
1939-04-28,782.0
1939-04-29,930.0
1939-04-30,990.0
1939-05-01,1020.0
1939-05-02,1100.0
1939-05-03,1040.0
1939-05-04,1000.0
1939-05-05,1090.0
1939-05-06,1160.0
1939-05-07,1020.0
1939-05-08,1050.0
1939-05-09,1150.0
1939-05-10,1290.0
1939-05-11,1300.0
1939-05-12,1220.0
1939-05-13,1060.0
1939-05-14,970.0
1939-05-15,911.0
1939-05-16,866.0
1939-05-17,736.0
1939-05-18,798.0
1939-05-19,1050.0
1939-05-20,1230.0
1939-05-21,1220.0
1939-05-22,1240.0
1939-05-23,1220.0
1939-05-24,1040.0
1939-05-25,902.0
1939-05-26,790.0
1939-05-27,848.0
1939-05-28,893.0
1939-05-29,920.0
1939-05-30,980.0
1939-05-31,980.0
1939-06-01,1050.0
1939-06-02,1020.0
1939-06-03,1040.0
1939-06-04,1140.0
1939-06-05,1160.0
1939-06-06,1010.0
1939-06-07,848.0
1939-06-08,790.0
1939-06-09,736.0
1939-06-10,715.0
1939-06-11,701.0
1939-06-12,650.0
1939-06-13,614.0
1939-06-14,560.0
1939-06-15,496.0
1939-06-16,412.0
1939-06-17,357.0
1939-06-18,315.0
1939-06-19,279.0
1939-06-20,252.0
1939-06-21,232.0
1939-06-22,215.0
1939-06-23,215.0
1939-06-24,208.0
1939-06-25,190.0
1939-06-26,178.0
1939-06-27,166.0
1939-06-28,161.0
1939-06-29,150.0
1939-06-30,159.0
1939-07-01,150.0
1939-07-02,140.0
1939-07-03,130.0
1939-07-04,122.0
1939-07-05,117.0
1939-07-06,104.0
1939-07-07,95.0
1939-07-08,92.0
1939-07-09,90.0
1939-07-10,82.0
1939-07-11,76.0
1939-07-12,72.0
1939-07-13,66.0
1939-07-14,61.0
1939-07-15,64.0
1939-07-16,63.0
1939-07-17,55.0
1939-07-18,53.0
1939-07-19,53.0
1939-07-20,48.0
1939-07-21,46.0
1939-07-22,45.0
1939-07-23,46.0
1939-07-24,42.0
1939-07-25,42.0
1939-07-26,41.0
1939-07-27,50.0
1939-07-28,76.0
1939-07-29,85.0
1939-07-30,95.0
1939-07-31,85.0
1939-08-01,76.0
1939-08-02,68.0
1939-08-03,72.0
1939-08-04,63.0
1939-08-05,57.0
1939-08-06,57.0
1939-08-07,88.0
1939-08-08,68.0
1939-08-09,55.0
1939-08-10,53.0
1939-08-11,52.0
1939-08-12,46.0
1939-08-13,44.0
1939-08-14,46.0
1939-08-15,43.0
1939-08-16,41.0
1939-08-17,40.0
1939-08-18,40.0
1939-08-19,40.0
1939-08-20,37.0
1939-08-21,41.0
1939-08-22,48.0
1939-08-23,39.0
1939-08-24,37.0
1939-08-25,35.0
1939-08-26,44.0
1939-08-27,79.0
1939-08-28,97.0
1939-08-29,146.0
1939-08-30,77.0
1939-08-31,60.0
1939-09-01,49.0
1939-09-02,45.0
1939-09-03,45.0
1939-09-04,38.0
1939-09-05,38.0